{"data":{"norad_id":50829,"epoch":"2026-09-20T02:59:07.080000Z","epoch_age_seconds":80759,"freshness":"FRESH","line1":"1 50829U 22001AC  26263.12438750  .00001011  00000+0  42080-4 0  9998","line2":"2 50829  53.1603   3.8135 0001095  80.6592 279.4533 15.33545573259920","mean_motion":15.33545573,"eccentricity":0.0001095,"inclination_deg":53.1603,"raan_deg":3.8135,"arg_perigee_deg":80.6592,"mean_anomaly_deg":279.4533,"bstar":4.208e-5,"rev_number":25992,"period_min":93.90004609925,"perigee_km":464.49460612832,"apogee_km":465.99330655776,"semimajor_km":6843.380956343,"source":"CELESTRAK","updated_at":"2026-09-20T09:00:39.579500Z"}}